Terminal Aerodrome Forecast
Issued by NWS Birmingham, AL

Home | Current Version | Previous Version | Text Only | Print | Product List | Glossary On
Versions: 1 2 3 4 5 6 7 8 9 10 11 12 13 14 15 16
000
FTUS44 KBMX 132300
TAFBHM
TAF
KBHM 132320Z 1400/1424 20007KT 5SM TSRA BKN060CB
     FM140100 23003KT P6SM FEW060
     FM141700 24008KT P6SM VCTS BKN050CB=

USA.gov is the U.S. government's official web portal to all federal, state and local government web resources and services.